{"data":{"norad_id":69585,"intl_designator":"2026-138D","name":"CENTISPACE-1 GROUP 05 O*","alt_names":[],"object_type":"PAYLOAD","status":"ACTIVE","operator":null,"country":"PRC","launch_date":"2026-06-17","launch_site_code":"JSC","launch_vehicle":null,"mission":null,"orbit_class":"UNKNOWN","rcs_meters":null,"size_class":null,"mass_kg":null,"dimensions":null,"purposes":[],"wikipedia_slug":null,"has_3d_model":false,"image_url":null,"decayed_at":null,"tle_current":{"epoch":"2026-09-20T02:15:22.376736Z","epoch_age_seconds":64121,"freshness":"FRESH","line1":"1 69585U 26138D   26263.09400899  .00000125  00000+0  14086-3 0  9990","line2":"2 69585  55.1400 290.5188 0012641 106.9464 253.2897 14.15933655 13469","mean_motion":14.15933655,"eccentricity":0.0012641,"inclination_deg":55.14,"raan_deg":290.5188,"arg_perigee_deg":106.9464,"mean_anomaly_deg":253.2897,"bstar":0.00014086,"rev_number":1346,"period_min":101.6996802721,"perigee_km":830.01438974059,"apogee_km":848.26110375532,"semimajor_km":7217.274746748,"source":"CELESTRAK","updated_at":"2026-09-20T09:00:24.996357Z"}}}